Theta_e
343 344 345 346 347 345 344 343 343 342 344 341 337 335 335 334 335 335 335 335 334 334 333 333 334 336 334 334 335 335 337 338 339 338 339 339 341 341 340 341 341 340 340 337 336 336 334 334 333 332 331 330 330 329 327 328 328 328 328 329 332 335 335 333 333 333 332 330 329 328 328 327 327 326 325 325 325 324 324 324 324 324 323 323 323
344 345 345 345 347 348 347 345 344 344 343 340 336 335 334 334 335 335 334 333 332 334 333 332 331 334 333 333 334 335 337 337 336 336 337 339 340 343 339 340 340 340 340 339 336 336 336 334 333 333 331 331 330 330 328 329 328 328 328 328 331 333 334 334 333 332 331 329 327 327 327 326 325 326 325 324 325 324 324 324 323 323 323 322 322
346 345 346 345 343 344 345 345 345 345 343 340 340 338 338 335 334 334 331 332 331 333 332 332 332 330 331 331 332 335 335 337 335 335 335 337 338 340 339 340 340 338 340 339 340 337 336 336 335 333 333 331 331 330 329 328 328 328 329 329 330 332 333 335 333 332 331 330 329 328 327 326 326 325 324 324 324 324 324 323 323 322 322 321 321
339 340 341 342 343 343 342 343 344 343 341 339 338 338 337 333 332 335 334 333 333 334 335 333 332 330 331 329 332 333 333 335 334 335 334 336 337 339 340 340 340 339 339 339 339 339 338 337 336 336 334 333 332 331 330 328 329 329 329 330 329 331 331 334 333 333 331 331 329 328 327 326 326 325 324 323 323 323 323 323 323 322 322 322 321
337 340 342 343 343 341 341 340 341 344 341 339 339 340 338 335 334 334 333 334 334 334 332 334 333 332 333 331 332 331 332 333 334 335 334 335 336 336 339 339 342 338 337 339 337 339 339 338 337 336 335 334 332 331 331 330 330 329 328 330 330 330 331 332 334 333 332 331 329 328 328 326 325 324 324 324 323 323 322 322 322 322 322 321 321
340 342 341 341 340 340 338 338 340 344 343 340 337 336 337 336 332 332 332 332 331 333 332 331 332 333 334 333 334 334 333 331 333 334 335 335 335 337 336 337 337 341 341 340 339 337 337 339 338 337 336 335 334 333 333 332 331 330 328 329 330 330 330 331 333 334 333 332 331 329 328 327 326 325 323 323 322 322 322 322 321 321 321 321 320
340 341 340 339 338 338 338 338 340 342 341 339 338 336 338 337 333 331 332 330 331 332 332 331 331 333 335 337 333 332 334 333 334 333 333 336 337 336 337 336 339 339 339 341 340 338 336 337 339 339 338 336 335 335 334 334 333 331 330 329 328 328 329 329 332 334 333 332 331 330 328 327 326 324 324 323 322 321 320 320 321 321 321 321 320
341 340 340 339 337 338 339 341 341 340 340 340 338 336 335 338 337 334 332 330 331 331 332 333 335 334 335 337 335 334 333 333 333 333 333 335 334 335 337 337 338 337 339 339 342 340 336 336 337 338 339 338 337 336 336 334 333 333 332 331 330 330 329 329 331 333 334 333 332 331 329 328 326 325 324 323 322 322 321 321 320 320 320 320 320
341 339 339 338 337 338 340 341 341 339 339 340 337 337 337 335 337 335 336 334 331 330 333 335 335 335 336 336 336 335 333 333 333 333 331 333 334 333 336 336 337 337 338 337 341 341 338 336 336 336 336 338 339 337 336 336 335 334 334 332 331 331 330 329 330 332 335 334 332 332 330 328 327 326 325 324 323 322 322 321 321 320 319 319 319
339 338 338 338 338 338 339 340 340 339 338 339 338 340 342 340 339 341 339 337 336 335 336 336 334 333 336 336 339 337 334 333 334 332 331 331 333 333 334 336 336 336 338 338 338 339 340 337 336 334 335 335 336 339 338 337 336 335 334 334 332 332 332 332 330 331 332 335 333 332 330 328 327 326 325 324 324 323 322 322 321 320 319 318 318
339 340 339 336 336 337 339 340 340 339 339 338 337 338 338 339 339 339 338 339 339 338 337 336 335 335 333 335 336 336 338 337 336 334 333 334 333 334 333 336 337 337 337 338 337 338 338 339 340 340 338 334 335 338 338 338 337 336 335 335 334 334 334 334 333 330 331 334 335 333 331 329 327 327 326 325 324 323 323 322 321 321 320 319 318
334 336 336 336 335 335 338 338 337 338 337 336 336 336 330 333 334 335 335 335 336 337 337 335 334 334 333 334 334 337 336 336 336 335 336 336 337 336 335 335 337 337 337 337 338 337 337 338 337 337 338 336 334 335 337 337 337 338 337 336 335 335 335 335 334 333 330 331 335 334 332 330 328 327 326 326 325 323 323 322 322 321 320 319 318
332 332 332 333 334 334 334 334 337 337 335 331 337 335 332 331 332 333 334 333 335 337 337 336 333 331 332 333 334 335 337 336 335 335 333 334 336 337 338 337 337 337 338 337 336 337 337 337 337 337 337 336 338 333 333 334 335 337 338 338 337 336 335 336 336 335 333 331 334 335 333 331 329 327 327 326 325 324 324 322 322 321 320 320 319
331 331 331 330 332 331 333 333 333 335 336 336 335 335 336 334 333 332 333 333 333 335 334 332 327 325 327 324 331 332 331 334 334 334 335 335 336 337 339 338 338 340 341 339 338 336 335 336 337 336 336 336 336 340 339 338 337 335 338 338 338 338 336 336 338 336 334 333 332 336 334 331 330 328 327 326 326 324 324 323 322 321 320 319 319
330 330 329 328 328 330 331 332 333 334 335 335 335 335 335 333 333 331 329 333 334 335 334 332 328 330 331 327 325 323 330 330 331 332 333 336 336 336 336 335 335 337 339 340 339 338 336 336 335 336 337 337 336 336 337 336 337 335 335 337 338 338 337 337 337 338 336 335 333 335 335 333 331 329 328 327 326 325 324 323 322 321 321 320 319
328 327 327 329 329 329 330 330 331 332 331 331 332 334 335 334 335 334 333 328 329 331 334 335 331 329 322 324 324 323 319 323 327 332 333 333 332 334 333 332 333 334 338 338 338 339 338 337 335 336 337 337 337 336 336 336 334 333 331 334 335 336 338 338 338 337 336 336 336 334 336 333 332 330 329 328 327 325 324 323 323 322 321 320 320
327 326 324 327 327 327 328 330 329 329 329 328 328 328 332 334 334 333 332 331 327 330 331 333 332 333 330 321 320 317 320 323 326 328 330 331 329 330 332 332 333 334 335 337 339 340 339 338 338 337 338 338 338 337 337 337 337 340 339 333 334 335 337 338 338 338 338 336 336 335 337 335 333 331 330 328 327 326 325 324 323 322 322 321 320
326 326 326 325 326 327 327 327 329 328 327 327 326 326 327 328 330 330 330 331 328 325 328 331 331 331 330 330 325 319 323 326 323 318 330 328 332 331 330 331 332 333 335 335 336 336 339 340 340 340 340 339 338 337 337 337 337 336 338 341 330 330 329 333 338 339 339 338 336 336 337 337 334 332 331 329 328 326 325 325 323 322 322 322 321
327 327 326 326 325 325 327 326 326 327 327 326 325 325 324 325 328 327 327 328 328 326 326 327 331 331 331 333 330 329 329 324 321 321 316 328 327 331 330 332 332 333 333 334 335 337 339 339 340 338 339 339 339 339 339 337 335 334 333 331 327 327 325 323 328 337 339 339 337 336 336 335 335 333 331 330 329 327 326 325 325 323 323 322 322
326 326 326 326 326 324 326 326 325 325 324 324 323 325 326 326 328 327 327 327 326 323 323 328 324 323 327 327 327 328 328 327 326 322 321 317 321 328 331 332 333 333 332 333 336 337 339 340 338 337 338 338 339 338 338 338 339 339 338 327 324 325 323 322 319 320 327 337 339 337 335 335 336 334 332 331 329 328 327 326 326 325 323 323 322
326 326 326 325 325 325 325 323 322 321 320 321 323 324 325 325 325 326 325 325 324 324 322 321 321 320 322 323 323 323 324 327 327 325 320 318 317 319 322 330 329 331 333 335 334 336 337 337 336 336 338 340 341 339 339 340 340 341 335 325 324 322 321 320 316 317 317 325 334 338 337 335 335 335 334 332 330 329 328 327 326 326 324 323 322
326 325 324 322 320 319 318 318 319 317 317 317 319 320 321 321 323 323 324 324 325 324 322 321 321 321 320 321 319 318 320 320 322 321 322 323 315 315 320 320 319 325 331 331 332 333 333 334 336 335 336 338 339 340 340 340 341 339 336 324 322 321 319 317 314 313 314 320 328 333 337 337 336 335 335 334 333 331 329 328 327 327 326 324 323
323 324 322 319 319 319 319 318 319 318 317 317 318 317 319 320 320 321 322 322 321 321 321 321 320 320 321 319 318 318 317 316 317 317 318 317 315 315 317 317 317 318 323 327 330 329 329 330 331 332 334 336 337 338 340 341 334 332 323 322 320 320 317 315 314 312 313 321 326 331 334 336 337 335 335 334 334 332 331 330 329 328 327 326 325
323 320 320 320 320 320 320 319 318 318 318 318 318 318 319 319 319 319 319 319 320 320 320 319 319 319 319 319 318 318 318 316 316 317 317 317 316 314 313 314 316 317 320 326 327 326 325 324 326 329 332 333 334 337 338 339 336 325 330 323 321 317 315 315 314 314 311 318 323 327 333 336 337 337 335 336 335 334 333 332 331 329 328 327 326
321 320 320 321 321 321 321 318 318 318 318 317 318 318 318 317 318 319 319 318 318 319 317 318 318 318 316 317 316 317 317 317 317 317 317 317 316 313 314 315 313 314 315 315 315 318 320 323 325 326 327 330 332 333 334 336 338 327 323 327 318 317 314 314 314 314 313 312 317 322 326 331 335 337 337 335 335 335 334 331 326 322 322 324 324
321 321 320 320 320 322 322 320 319 318 318 318 318 318 319 316 317 317 317 318 318 318 317 317 317 316 317 314 315 314 315 316 316 315 315 314 313 313 313 313 314 311 313 313 315 314 318 322 325 327 327 329 331 333 334 333 337 320 321 329 329 316 315 314 312 311 309 309 308 311 314 320 325 329 331 334 332 326 324 322 319 317 315 317 320
322 323 321 320 321 322 322 320 319 319 318 318 317 318 318 317 317 318 318 318 317 317 317 317 315 314 315 315 314 315 313 313 314 313 312 314 313 313 312 308 309 311 312 313 314 314 314 318 319 319 325 330 330 333 332 335 329 320 321 335 337 316 314 313 313 312 309 307 306 307 308 310 313 316 317 317 318 320 324 322 319 316 314 314 314
324 324 322 322 322 322 321 321 320 319 319 318 318 317 317 316 316 317 317 317 317 317 316 316 316 315 315 314 314 312 314 313 313 314 312 313 313 313 313 311 307 304 309 310 312 312 317 316 320 322 324 327 331 333 330 327 331 321 325 335 335 330 315 313 312 311 310 309 308 306 306 307 308 309 311 315 318 319 320 321 320 316 314 314 314
324 326 323 323 323 322 322 321 321 319 319 318 317 317 317 317 317 316 317 317 317 316 316 315 315 315 314 314 313 314 313 315 313 314 314 314 313 313 312 311 311 308 305 306 309 310 314 317 316 319 320 319 325 328 328 328 324 322 327 329 331 333 320 314 311 311 311 310 309 307 307 307 308 309 311 313 315 318 318 318 318 316 314 315 315
326 326 325 323 323 322 322 321 321 319 318 317 317 316 317 316 316 316 315 316 315 315 314 314 314 314 313 313 314 313 313 314 313 313 314 314 312 313 312 313 312 309 308 306 307 312 312 316 315 314 321 322 323 324 324 323 317 320 322 323 326 329 318 312 311 310 310 309 308 307 306 307 307 309 310 312 313 314 316 315 316 315 315 315 314
325 325 324 323 323 322 322 321 320 319 318 317 317 317 317 316 316 315 316 316 314 313 313 313 312 313 312 311 312 312 312 314 314 314 314 313 313 313 312 313 312 312 311 309 306 311 315 312 315 318 317 317 317 319 320 321 319 319 322 324 323 318 316 323 313 312 312 311 309 307 306 307 306 306 308 310 312 312 313 314 317 316 315 314 311
324 324 323 323 323 322 321 321 320 319 318 317 317 317 317 316 315 314 314 314 313 313 312 312 310 312 312 311 310 310 310 310 312 312 311 312 313 311 312 312 312 312 311 309 308 308 313 313 314 315 315 317 317 316 317 317 317 315 322 323 324 317 324 325 315 313 312 310 310 309 308 308 307 306 306 307 308 310 311 312 315 315 314 312 312
323 323 322 322 322 322 321 320 319 319 318 317 317 317 316 315 314 314 313 312 311 311 312 311 311 311 309 309 309 310 311 310 311 311 310 310 310 310 311 311 310 311 310 309 307 308 312 315 315 314 316 317 314 315 315 317 319 322 319 323 325 326 325 325 325 313 310 310 308 307 307 306 306 306 305 304 306 306 307 309 311 311 312 312 310
323 322 321 322 322 322 321 320 319 318 317 316 316 316 314 314 314 313 313 311 311 310 311 309 310 310 311 309 308 309 309 307 310 308 309 308 308 308 309 310 308 310 312 309 307 306 306 311 311 314 313 315 311 315 316 316 317 318 316 317 319 320 319 320 320 326 308 310 307 306 306 306 305 305 305 304 303 304 306 306 307 308 310 310 309
323 323 321 322 322 322 321 320 319 318 317 316 316 315 314 313 312 313 313 312 311 311 310 309 308 309 309 309 309 310 310 309 309 310 311 309 309 308 309 309 308 309 309 309 306 305 305 306 310 309 310 312 313 312 313 314 315 314 313 314 315 317 318 320 321 323 309 307 306 306 305 305 305 304 304 304 304 303 303 304 305 306 306 307 307
323 324 323 322 322 321 320 320 319 318 317 316 315 315 314 313 312 311 311 312 311 310 309 309 307 308 308 307 308 308 309 308 309 308 308 309 309 308 309 309 310 309 310 310 309 307 306 304 308 307 309 309 310 311 312 312 312 312 313 314 315 315 316 316 319 320 313 305 305 306 306 306 306 305 304 304 304 304 303 304 304 305 305 306 306
324 324 322 323 322 321 320 319 319 318 317 316 315 314 314 313 312 312 311 311 311 310 309 309 307 308 306 307 306 307 307 307 308 308 308 308 307 307 307 307 306 307 309 309 309 309 307 306 307 309 310 309 309 310 310 309 309 310 312 312 313 314 316 318 319 318 311 307 307 307 307 307 307 306 305 304 304 303 303 303 303 304 304 305 305
323 324 323 323 322 320 320 320 319 317 317 316 315 314 313 313 313 312 311 311 310 309 308 307 306 306 306 305 305 306 306 306 306 307 308 307 307 307 307 306 306 307 307 308 308 307 307 306 307 307 309 307 308 309 310 310 309 308 309 311 312 312 313 314 316 316 319 320 326 327 311 307 306 304 305 305 304 303 303 303 303 303 304 305 305
323 323 323 322 322 320 320 319 318 317 316 316 315 314 313 312 312 311 311 310 309 308 306 305 305 305 304 304 305 305 304 305 305 305 306 307 307 307 307 307 307 307 306 306 306 306 305 305 305 306 306 308 308 306 309 310 309 308 307 308 309 311 315 316 317 319 320 322 318 312 315 316 311 313 309 304 304 303 303 303 302 303 303 303 304
322 322 322 322 321 319 319 319 318 318 316 315 315 314 313 312 312 311 311 309 307 307 306 305 305 304 304 304 304 303 303 304 304 304 304 304 304 305 306 307 307 306 305 305 305 304 304 304 303 304 305 305 306 308 308 308 308 308 309 309 307 309 310 313 314 314 317 319 320 322 316 314 311 310 303 304 303 303 302 302 302 304 303 303 303
323 322 323 322 320 319 319 319 317 316 316 315 314 313 313 312 312 310 308 306 306 305 305 304 304 304 304 304 303 303 302 299 299 298 298 299 299 299 302 303 303 304 305 305 304 303 303 303 303 305 304 304 305 306 305 306 305 306 310 310 308 308 308 309 311 314 314 315 317 318 319 325 323 325 324 325 325 312 310 304 308 303 303 302 302
323 322 322 322 320 317 316 315 315 315 315 314 310 303 306 311 310 308 307 306 305 304 303 303 303 303 303 303 304 299 300 299 298 296 294 295 296 299 300 301 301 302 302 302 302 303 303 301 302 302 302 302 303 305 305 307 308 309 307 308 307 308 308 307 309 311 313 313 313 313 315 318 319 321 323 322 326 326 327 318 320 316 306 301 301
322 322 321 319 319 317 316 315 315 315 314 311 296 295 295 299 307 307 306 305 304 303 303 302 302 302 303 302 303 302 302 300 301 294 293 293 294 294 294 295 296 298 298 298 299 301 300 301 302 302 302 302 303 305 305 305 306 306 306 307 306 306 305 303 303 309 314 315 315 315 317 321 321 319 320 322 324 325 326 326 311 307 305 302 301
321 322 320 320 319 318 317 315 315 313 313 299 293 293 294 295 299 306 305 305 303 303 302 302 301 301 302 302 302 303 303 302 300 299 298 294 293 293 292 292 292 292 293 297 297 298 300 299 300 301 302 301 302 304 304 305 305 305 306 306 305 305 304 304 304 304 311 315 311 311 312 318 321 320 319 321 323 325 325 317 307 303 303 302 301
321 320 319 317 317 317 317 315 314 313 310 294 293 293 293 293 293 299 304 304 302 302 302 301 301 301 301 301 301 301 302 301 299 301 301 302 296 292 292 293 292 292 291 290 291 297 298 298 298 299 300 302 302 303 305 305 306 303 303 302 303 303 304 303 304 305 308 312 311 310 310 314 316 315 317 319 323 325 325 310 307 305 301 301 301
320 320 319 318 317 316 315 314 313 312 304 294 292 292 292 291 290 295 303 302 301 301 300 301 301 301 301 301 300 300 301 301 301 301 301 301 301 301 301 301 301 299 293 290 290 291 294 297 297 296 299 301 299 302 304 305 303 301 301 301 302 301 301 302 305 306 308 309 306 306 306 309 314 315 314 317 320 323 323 316 305 305 302 301 301
318 318 318 317 317 315 314 312 310 307 301 292 292 291 291 291 289 293 302 301 301 301 302 302 301 301 301 301 301 300 300 300 300 299 298 298 299 299 299 299 300 301 302 302 301 300 298 298 298 298 299 299 300 301 302 302 302 302 302 302 301 302 301 303 303 304 304 306 307 306 302 306 312 311 312 315 318 319 322 305 301 301 300 300 299
318 319 318 317 315 313 312 311 308 302 298 291 291 291 291 290 289 300 301 301 301 301 301 301 301 301 301 301 301 300 300 299 296 292 294 297 297 297 297 298 299 300 300 298 296 296 299 300 301 300 301 301 295 297 297 297 298 300 300 301 302 300 298 297 296 300 300 304 306 304 303 304 309 309 310 314 315 316 318 321 299 302 300 300 299
315 316 317 316 314 312 309 307 302 298 296 293 290 290 290 289 292 300 301 300 300 300 301 301 301 301 301 301 301 299 298 298 294 290 290 291 296 296 296 296 297 297 298 299 296 293 292 292 291 291 291 290 291 292 292 291 295 296 297 296 296 298 296 295 297 298 299 303 305 306 304 303 307 308 308 311 313 313 315 318 314 298 298 298 298
314 315 314 313 311 309 306 303 301 298 297 294 290 290 290 289 294 299 299 299 299 300 300 301 302 301 301 299 298 298 298 298 292 289 289 292 295 295 295 294 294 295 296 298 299 299 293 291 291 291 291 291 291 291 291 291 291 293 295 293 296 297 295 295 295 297 300 302 303 307 304 303 307 309 307 310 312 313 314 315 316 308 298 298 296
314 314 312 310 307 305 304 301 298 297 296 294 290 290 290 289 295 300 299 298 298 299 300 300 301 301 300 299 297 297 297 296 290 289 289 291 294 294 294 293 292 293 295 297 296 296 297 297 297 296 295 293 294 295 295 292 292 293 295 295 296 294 293 294 295 297 296 299 303 307 301 303 305 307 307 307 306 310 314 314 310 312 312 311 309
Wind_Speed
4 4 4 3 4 4 4 5 5 6 5 5 5 4 3 4 4 5 5 5 5 5 6 7 5 5 5 5 5 4 5 4 3 4 3 2 3 10 10 6 4 3 3 5 5 7 5 5 4 5 5 4 4 3 2 2 3 3 2 2 3 4 6 7 6 7 8 8 7 8 8 8 8 8 8 8 8 8 9 9 10 11 11 12 12
4 3 3 4 4 6 6 6 5 4 4 5 4 3 3 4 5 6 6 6 6 6 5 6 7 5 6 6 6 6 4 5 4 4 3 3 2 8 12 9 5 4 3 4 6 6 7 5 4 5 4 5 4 4 3 4 3 3 2 3 3 3 2 6 7 6 7 7 7 7 8 8 8 8 8 8 8 8 8 9 10 10 11 11 12
5 4 3 6 7 6 5 4 5 5 5 4 2 3 3 3 5 6 7 7 6 5 6 6 7 7 6 7 6 6 5 5 4 4 4 4 4 4 11 12 9 6 5 4 4 5 6 6 6 5 6 4 4 4 4 3 4 4 3 4 2 1 3 5 7 6 6 7 7 7 7 7 7 8 8 7 7 8 8 9 9 10 10 11 11
5 1 6 5 4 4 4 5 4 5 5 3 2 3 3 4 4 5 5 5 5 5 5 5 6 7 7 8 7 7 6 6 6 5 5 4 4 4 4 9 11 9 8 6 5 5 5 7 6 7 5 6 4 4 4 4 4 4 4 3 3 2 0 3 6 8 6 7 7 8 7 7 7 7 8 7 7 7 7 8 8 9 9 10 10
4 5 5 4 4 4 5 6 5 4 3 4 4 3 3 2 3 4 6 5 5 5 5 5 6 5 5 6 6 7 7 7 7 5 5 5 4 4 4 5 8 13 11 9 8 6 6 5 8 7 6 6 4 4 4 5 5 4 5 5 4 4 3 1 6 8 8 8 7 8 8 7 7 7 8 8 7 7 7 7 8 8 9 10 9
2 2 0 1 3 5 5 5 5 3 3 4 4 5 4 4 6 6 6 6 7 6 5 5 6 5 5 6 5 6 6 7 6 6 5 5 5 4 5 4 4 7 9 13 11 10 8 6 7 7 6 7 6 5 5 7 7 6 5 5 5 5 4 4 3 9 9 8 8 8 8 8 8 8 7 8 8 8 7 7 7 8 9 9 9
2 1 4 2 3 4 5 5 6 5 4 5 5 5 5 5 5 6 7 6 6 6 6 5 5 5 5 5 6 6 6 6 6 6 6 6 5 5 4 4 4 4 5 7 11 12 11 10 8 7 7 9 7 7 7 7 8 9 7 6 7 6 6 6 4 7 9 9 9 9 9 9 9 9 9 8 8 8 8 7 7 8 8 8 9
4 4 3 3 3 3 4 3 5 5 5 5 6 6 6 5 5 5 6 7 7 7 5 5 5 5 4 5 5 6 6 6 7 7 7 7 6 5 5 5 5 5 4 4 6 11 14 12 10 9 7 8 10 9 9 7 6 11 8 7 7 7 6 7 7 4 8 9 9 9 9 9 10 10 9 9 9 9 9 9 8 8 8 8 8
4 3 3 4 3 3 3 4 5 5 7 6 7 6 5 5 4 5 5 5 6 5 4 4 5 5 5 5 5 5 6 6 7 7 7 6 5 6 6 6 6 5 5 4 4 5 15 14 13 11 10 8 9 12 10 8 8 9 9 7 7 8 7 8 8 7 7 10 9 10 10 10 11 11 10 10 10 9 9 9 9 9 8 8 8
5 4 3 2 2 2 3 4 5 6 6 7 6 5 4 3 4 4 4 5 5 5 4 3 3 5 5 5 4 4 5 5 5 5 6 6 7 7 6 5 5 6 5 5 5 4 5 13 15 13 12 11 10 10 13 10 9 8 9 9 8 11 10 9 10 9 7 10 10 10 10 10 11 11 11 11 10 10 10 10 10 9 9 9 8
5 4 4 4 3 2 3 5 4 5 5 5 6 5 4 2 4 4 2 2 3 2 1 1 3 4 5 5 5 5 3 4 5 5 6 7 7 7 6 6 6 5 6 6 6 5 6 6 9 9 11 15 13 12 14 14 11 10 10 10 10 11 12 12 10 10 10 9 11 11 10 11 11 11 11 11 11 11 10 10 10 10 10 10 9
3 2 2 3 3 3 3 3 3 4 4 5 5 2 2 4 7 6 6 4 4 3 2 2 2 3 4 6 6 5 4 4 6 7 6 7 6 6 6 6 7 6 7 7 6 6 5 5 5 6 7 15 18 15 15 14 13 13 12 11 10 10 14 13 12 11 11 11 11 11 10 12 12 12 12 12 12 11 11 11 10 10 10 10 10
1 2 2 1 3 3 4 4 4 3 3 5 4 6 7 8 6 6 7 5 5 3 3 4 3 2 3 4 4 6 6 5 7 6 7 6 6 6 6 6 6 6 6 5 6 7 6 6 6 6 6 5 12 16 15 15 14 13 15 14 13 12 12 15 13 11 11 12 12 12 11 13 13 13 12 12 12 12 12 12 11 11 10 10 10
2 2 1 2 2 3 3 2 3 3 2 3 3 5 5 5 6 6 6 6 5 4 4 3 2 4 3 3 2 2 5 5 7 6 6 7 7 7 7 7 7 6 6 6 7 7 7 6 6 6 6 6 7 8 10 12 13 15 16 16 16 15 12 13 15 13 10 11 12 14 13 15 14 14 14 13 13 13 12 13 13 12 12 11 11
3 4 3 2 1 1 2 2 2 3 4 4 4 5 4 5 6 5 5 5 3 3 3 5 2 3 2 2 0 2 0 4 6 6 5 8 6 7 7 8 8 8 6 6 6 7 7 7 7 7 7 7 6 6 7 10 11 16 17 17 18 16 16 14 14 16 14 12 11 14 13 16 15 15 15 15 14 13 13 13 13 13 13 12 12
4 4 4 4 2 3 2 2 2 2 3 4 4 4 4 3 4 4 5 5 5 4 2 2 3 3 3 2 1 0 2 3 3 3 4 3 5 10 7 6 7 7 6 7 6 6 7 7 8 7 7 7 7 6 6 6 12 16 19 18 18 17 18 17 16 14 11 12 12 14 15 16 16 16 15 15 14 14 13 13 14 14 13 13 13
4 4 4 4 3 4 4 4 3 3 3 3 3 3 4 3 3 3 4 5 6 3 2 1 2 1 1 3 2 3 3 0 2 2 3 1 6 6 5 4 6 5 5 6 6 6 6 7 7 7 7 7 8 8 8 8 7 9 12 17 18 17 18 18 18 17 15 11 14 15 17 18 17 17 16 15 15 14 14 14 14 13 13 13 12
4 4 4 3 4 3 3 4 4 3 3 4 4 3 3 4 4 4 5 2 2 4 4 3 2 2 1 1 2 2 0 1 1 3 3 5 6 8 5 5 2 6 4 5 5 5 4 5 6 6 7 8 8 9 8 8 8 7 8 10 17 17 16 17 19 19 18 16 14 15 18 19 19 18 18 17 16 16 16 15 15 14 13 13 13
4 4 4 4 4 4 3 3 4 3 3 3 4 3 3 5 5 4 3 3 3 2 2 4 4 4 2 1 1 2 3 2 2 3 5 2 4 2 3 2 1 3 4 4 4 4 3 4 4 6 6 7 7 7 8 9 10 9 7 4 17 18 18 16 15 17 18 18 16 16 15 17 18 19 18 18 17 17 18 17 16 15 15 15 14
4 5 5 5 5 5 4 4 3 4 3 4 3 4 4 4 4 3 3 2 2 3 3 3 2 2 2 2 2 3 3 3 3 3 5 5 2 5 3 2 2 4 4 5 3 3 2 4 6 6 6 6 7 7 8 8 9 9 10 10 12 16 16 16 15 15 14 15 17 17 15 17 19 18 18 17 17 17 17 17 17 17 16 16 16
4 5 5 6 5 5 5 4 4 4 4 5 5 5 6 5 4 4 4 3 3 2 0 3 2 3 1 1 2 2 3 3 2 2 4 5 5 3 4 3 4 3 4 3 5 5 5 5 6 7 6 5 6 7 7 7 7 7 9 12 13 12 13 14 14 13 13 12 11 14 16 15 16 18 18 18 18 18 18 18 17 18 17 17 17
4 4 5 6 6 7 6 6 5 5 5 6 6 6 6 6 5 5 5 5 4 4 3 2 1 2 1 1 3 1 4 4 4 3 3 4 6 5 5 6 6 3 3 5 6 7 6 6 7 8 8 7 6 6 7 7 6 7 6 10 12 12 12 12 13 13 13 13 13 14 15 17 16 16 19 20 20 19 19 19 18 19 19 18 18
5 5 6 7 7 6 6 6 5 5 5 5 5 5 6 6 6 6 5 5 5 5 4 3 3 2 1 1 1 2 3 3 4 3 4 5 5 5 6 6 6 6 6 6 5 6 7 7 7 7 7 7 7 6 6 7 7 3 11 6 8 9 11 12 13 13 13 11 12 14 16 16 17 18 17 20 20 21 20 19 20 20 19 19 19
5 6 6 6 6 6 6 6 5 5 5 5 5 5 5 5 5 5 5 5 5 4 4 4 3 3 2 2 2 2 0 1 2 3 4 4 4 5 6 6 6 5 5 3 5 6 8 8 7 7 6 6 6 5 5 5 4 8 2 8 7 8 10 10 12 13 13 12 12 14 16 17 16 18 19 19 20 21 21 22 22 21 20 20 19
6 6 7 7 6 6 6 5 5 5 5 5 5 5 5 5 6 6 5 5 4 4 4 4 3 2 3 2 1 1 1 1 2 2 3 3 4 6 6 6 7 6 6 7 6 6 7 6 7 7 7 5 5 6 5 4 4 7 3 4 9 8 9 11 13 13 12 12 13 14 15 16 17 18 20 20 20 22 22 21 20 18 17 17 18
7 7 7 7 5 5 5 6 6 6 6 5 5 5 5 5 6 6 6 5 5 6 5 5 4 3 2 2 1 1 1 0 1 2 3 3 3 4 6 6 7 8 7 7 6 6 4 6 5 5 4 5 3 3 3 5 3 7 2 5 7 9 10 12 11 11 12 13 13 13 14 14 14 15 15 17 16 18 18 19 19 18 18 17 16
7 7 9 7 6 6 6 6 7 7 6 6 5 5 4 4 5 5 4 4 4 4 4 4 3 3 2 1 2 1 0 1 1 2 3 3 4 4 4 6 6 6 7 6 7 7 6 6 7 6 5 4 4 3 3 3 1 8 2 4 6 12 11 12 12 11 11 11 12 13 14 14 14 14 15 14 13 12 20 19 19 18 19 18 16
7 8 9 8 7 7 7 7 7 7 6 6 6 5 5 4 4 4 4 3 4 4 4 3 3 3 2 1 1 1 0 0 2 1 2 2 4 4 4 4 6 7 6 6 6 5 5 5 4 3 3 4 3 2 5 6 2 3 7 6 6 4 12 12 13 13 13 11 11 13 14 14 14 14 14 14 14 13 15 21 20 20 19 19 18
7 8 9 8 8 8 7 7 7 6 6 6 6 6 5 4 5 5 5 4 4 3 2 3 3 1 2 1 2 1 1 1 2 2 2 2 3 4 5 5 4 6 6 6 5 5 4 3 4 4 6 6 4 5 6 7 2 7 7 8 7 7 8 13 12 13 13 14 14 14 14 15 13 13 14 15 15 15 13 17 20 20 20 20 19
8 8 9 10 9 9 8 8 7 7 6 6 6 6 5 5 5 4 4 4 4 4 3 3 2 2 1 1 1 1 2 2 1 2 3 3 3 4 4 4 5 6 6 7 7 5 6 5 5 5 3 5 5 4 5 6 6 9 10 10 9 8 2 10 10 11 12 13 14 14 15 14 14 13 13 14 15 15 15 15 18 20 21 21 21
9 9 10 10 9 9 8 8 7 7 7 6 6 6 5 5 5 5 5 4 4 4 3 3 2 2 2 1 1 1 1 1 2 2 2 3 3 4 4 4 5 6 7 7 8 4 3 5 5 5 7 8 8 8 7 8 9 8 9 9 10 2 1 7 10 12 14 14 14 13 13 14 14 13 13 15 15 16 17 17 18 20 21 22 22
10 11 10 11 11 10 9 9 9 8 8 7 7 6 6 5 5 5 5 5 5 5 4 3 2 2 1 1 1 2 2 3 2 2 3 3 3 5 4 5 5 5 6 7 9 9 6 7 7 8 9 7 7 8 9 8 7 6 9 9 9 10 10 11 14 18 16 15 13 13 13 13 13 13 13 14 15 16 17 18 18 19 21 22 23
10 11 11 12 12 11 11 10 10 9 9 8 6 6 5 6 5 5 6 6 5 4 4 5 4 2 1 0 1 0 1 3 3 3 3 3 4 4 5 5 5 5 6 8 9 9 7 6 6 7 7 8 9 8 9 7 7 7 8 9 9 9 9 9 10 12 17 16 16 14 13 13 13 13 13 13 14 14 15 17 18 18 20 23 24
11 12 13 11 11 12 11 11 10 10 9 9 8 7 6 7 6 5 5 5 5 4 3 3 3 2 2 1 0 0 1 3 3 6 4 3 4 5 4 4 6 6 5 7 9 9 10 7 7 7 8 8 10 7 7 7 8 8 10 9 9 10 10 10 10 7 16 14 13 13 12 12 13 14 14 13 13 13 14 17 17 17 19 22 23
11 12 13 12 12 12 12 11 11 10 10 9 8 8 7 8 7 7 6 6 5 5 4 3 2 2 2 1 1 0 1 2 3 4 4 5 5 5 5 5 6 7 7 7 8 9 10 9 8 9 8 7 7 8 9 8 8 9 10 10 9 8 9 9 9 9 11 13 13 12 12 12 13 14 14 14 13 13 14 16 17 18 19 21 22
11 11 13 14 13 13 12 12 11 10 10 9 9 8 8 8 7 8 7 6 5 5 4 3 2 2 1 1 1 1 2 3 3 3 4 4 4 5 6 6 7 7 7 7 9 9 9 10 8 9 8 8 8 9 8 8 9 9 9 10 10 10 10 9 10 11 6 10 11 11 11 11 12 13 13 13 13 13 14 15 16 18 19 20 21
10 10 11 12 13 14 12 13 12 12 11 11 10 9 8 8 8 7 7 7 6 5 4 3 3 2 1 2 2 2 2 4 4 4 4 5 6 6 6 7 7 7 6 7 8 9 10 11 10 9 9 9 9 9 9 10 9 8 9 9 9 9 10 9 10 10 6 14 14 13 12 12 12 13 13 12 12 12 14 15 16 17 18 19 20
10 10 12 12 12 14 14 14 14 13 12 11 10 10 9 8 8 7 7 6 6 5 4 3 2 2 2 1 1 2 2 4 4 4 5 6 6 7 8 8 8 8 8 9 9 10 11 11 10 10 8 9 9 8 8 9 9 9 8 9 9 9 9 10 9 9 8 8 6 7 9 10 15 15 12 11 12 12 14 15 16 17 18 19 20
11 11 11 13 11 12 12 12 13 13 13 12 11 10 10 9 8 7 6 6 5 4 3 3 2 2 2 1 1 2 3 3 4 5 5 6 6 8 8 8 8 8 9 9 9 10 11 11 11 10 10 9 9 9 8 7 9 9 9 9 8 7 6 7 8 7 7 8 11 12 11 12 4 4 10 12 12 13 14 14 15 17 18 19 19
11 12 12 13 11 12 12 12 12 11 11 11 11 10 9 9 8 7 6 5 5 4 3 3 2 2 2 2 2 1 1 2 4 5 6 6 7 8 7 7 8 9 9 9 10 10 10 11 11 10 9 9 9 9 9 8 8 8 7 7 8 7 7 7 8 9 9 9 10 8 10 10 10 11 10 10 12 13 14 13 15 16 18 19 20
9 11 11 12 13 14 12 12 12 11 11 11 10 10 9 9 8 7 6 5 4 3 3 3 2 2 2 1 2 2 1 3 4 6 8 7 7 8 8 8 9 9 10 9 10 10 11 11 11 10 10 10 9 9 8 8 8 8 6 6 8 9 9 9 8 9 9 9 9 9 9 8 10 10 8 8 9 16 14 15 12 17 18 17 18
11 10 11 12 12 13 13 13 12 12 10 9 9 13 10 9 9 7 6 5 4 3 2 2 2 2 2 3 2 3 4 8 9 10 11 12 12 10 9 8 9 9 10 10 10 10 11 11 11 11 11 11 9 9 9 9 8 9 10 9 10 9 8 9 9 9 9 10 10 11 10 10 10 10 10 9 9 7 8 9 9 10 14 17 17
11 11 11 13 13 13 14 13 13 11 10 7 14 12 10 7 7 7 6 5 4 3 3 2 2 2 3 3 5 4 8 11 12 15 14 13 13 14 15 14 13 11 11 11 11 11 11 12 11 12 12 12 11 10 10 10 9 9 9 9 9 9 9 9 9 6 6 8 8 9 9 9 9 10 10 10 10 10 7 10 8 14 13 17 17
10 10 11 12 12 13 12 14 13 11 9 13 15 14 12 8 4 6 5 4 3 3 3 2 2 2 3 4 4 4 5 5 7 8 9 14 15 15 15 15 15 16 16 14 12 11 12 12 12 13 13 13 12 10 10 9 9 9 9 9 10 10 10 10 9 9 5 6 8 9 10 8 9 10 11 10 10 9 9 4 6 7 9 12 15
9 10 12 12 12 13 13 14 12 11 9 15 15 14 12 9 5 3 5 4 3 3 2 3 3 4 4 5 5 5 5 3 7 7 8 8 9 15 16 16 17 17 17 18 19 16 14 14 14 15 13 12 13 11 10 10 9 11 10 11 10 10 11 11 11 9 8 7 8 10 10 9 9 10 11 10 9 10 7 10 11 9 9 9 11
10 10 11 12 12 14 13 13 12 11 12 14 16 14 12 10 8 4 3 4 3 3 4 4 4 5 5 6 6 7 7 7 7 8 8 8 9 9 8 9 10 14 20 21 20 21 20 16 16 16 14 13 14 13 12 11 13 12 12 12 10 12 13 13 13 13 11 9 10 10 12 10 8 9 10 10 10 8 11 9 15 12 10 9 9
10 10 11 12 12 13 12 11 11 11 10 16 15 14 12 10 8 5 4 4 4 4 4 5 5 6 6 6 7 8 8 8 7 8 10 10 10 9 10 11 11 12 11 11 13 14 15 15 16 16 16 16 16 17 16 15 16 15 14 15 15 15 15 16 16 15 14 13 13 11 14 10 8 11 10 9 9 10 8 10 10 10 8 6 7
9 9 10 10 11 13 12 11 10 12 11 16 15 14 13 11 10 5 5 4 4 4 4 5 6 6 7 7 8 8 8 9 10 3 4 8 11 12 12 12 12 12 11 11 13 10 12 12 12 13 13 12 12 11 11 11 11 11 11 12 13 14 14 15 15 12 13 10 12 12 13 12 10 10 10 9 10 10 9 5 8 9 7 1 5
9 10 10 10 11 11 12 11 11 11 11 12 14 14 13 12 9 4 3 4 4 4 5 5 6 7 7 8 8 8 10 10 7 5 3 3 10 12 13 13 12 12 12 11 13 13 15 16 16 18 19 19 20 19 18 17 13 12 13 14 15 12 14 15 14 13 13 11 11 12 13 13 11 10 11 10 10 11 9 5 6 7 7 5 5
10 10 9 9 9 9 11 11 12 13 11 11 14 13 12 13 7 3 3 4 4 5 6 6 6 7 8 7 9 11 10 10 3 4 2 6 10 12 14 15 15 14 14 12 11 10 12 15 17 18 17 17 18 20 21 22 21 17 15 19 16 14 17 16 16 13 12 11 10 10 12 13 11 11 11 10 10 11 9 8 2 6 8 5 4
9 8 9 8 8 7 8 10 12 12 10 9 11 11 11 10 6 3 3 4 5 6 6 7 7 7 9 9 10 11 11 10 6 5 3 6 10 13 15 15 15 16 14 15 14 14 14 13 12 12 13 16 17 16 17 19 20 20 18 18 17 17 18 17 15 13 14 12 10 10 13 12 11 11 10 9 11 9 10 7 4 3 4 4 4
Wind_Direction
201 198 194 191 215 215 209 207 210 211 208 220 233 224 222 212 194 201 194 197 210 211 214 218 197 206 217 218 220 211 211 199 197 188 200 150 226 148 168 178 216 242 254 185 168 158 167 164 171 157 168 169 168 168 172 157 156 168 199 154 102 79 128 121 117 115 111 108 110 106 103 105 101 99 99 95 93 95 92 92 91 88 85 80 80
194 188 197 196 196 215 210 206 212 219 219 220 226 234 225 207 203 196 182 201 207 205 223 218 215 205 219 224 205 224 204 211 200 211 183 188 204 139 168 167 193 216 238 262 194 171 170 172 174 159 169 171 172 172 182 179 170 218 193 199 108 53 98 139 133 122 119 114 114 114 115 115 110 106 104 101 98 98 97 97 97 94 90 87 84
176 160 208 210 213 215 218 211 212 216 219 224 217 237 228 214 213 204 194 199 213 202 217 217 229 205 209 226 216 218 208 221 219 212 215 209 198 181 164 170 180 194 216 226 260 213 179 177 178 178 166 184 170 178 179 207 173 202 211 183 176 49 52 158 135 134 126 126 123 121 116 115 118 113 109 108 104 100 104 104 103 102 98 94 91
52 195 198 216 205 207 207 217 226 224 215 224 222 232 230 226 202 199 209 187 194 206 215 226 221 225 202 216 220 214 215 209 220 209 228 217 227 203 181 174 174 181 199 211 224 249 234 182 189 189 180 180 182 172 179 189 198 197 218 210 225 147 277 163 166 149 142 139 134 130 128 124 122 121 112 110 110 108 106 106 105 106 105 101 95
171 192 210 227 222 222 206 212 219 225 226 219 226 225 228 208 183 195 188 187 189 192 215 224 231 232 233 214 212 226 227 212 209 217 214 228 227 234 222 206 180 182 188 196 208 223 235 238 196 200 189 190 180 172 171 192 192 197 215 221 225 202 215 196 193 158 156 146 145 143 139 131 129 129 127 118 114 111 107 103 98 99 103 104 101
237 175 247 283 249 239 236 215 214 217 221 208 221 221 210 200 185 191 180 189 190 185 202 214 226 218 216 238 226 227 231 234 214 211 222 229 235 239 239 220 211 182 189 190 196 205 217 223 227 216 197 191 188 192 180 197 182 183 199 217 227 219 214 223 231 177 161 156 158 154 142 143 140 135 139 133 127 124 116 108 106 100 100 103 105
232 190 180 196 225 232 231 223 197 200 202 205 220 221 214 208 203 191 177 194 195 188 204 216 228 227 220 228 230 223 230 237 241 233 218 222 234 234 236 248 229 230 201 188 189 200 204 206 218 231 227 203 197 197 195 200 179 186 181 202 221 228 222 223 221 187 174 167 165 158 155 151 151 149 143 146 139 133 129 125 119 114 106 104 107
208 235 224 223 238 226 214 223 190 192 205 211 213 213 218 213 206 218 180 194 200 191 212 222 230 230 234 238 237 235 222 218 225 222 229 221 215 215 225 230 233 233 245 217 197 192 197 202 204 214 223 229 200 209 207 213 191 181 197 208 204 213 222 224 230 237 202 182 169 166 165 163 160 158 156 151 151 145 142 138 131 127 120 116 112
170 159 166 180 216 215 202 206 195 195 208 209 212 213 214 214 209 216 208 213 214 205 197 224 238 237 238 247 249 238 239 223 218 220 228 212 220 213 216 224 222 224 233 242 224 202 187 198 200 202 212 219 218 212 217 211 215 198 203 216 201 195 208 217 227 232 206 188 181 177 177 172 167 165 162 159 158 157 151 147 144 137 137 130 123
149 148 144 135 172 201 185 191 194 201 207 209 210 210 214 228 218 217 225 224 213 208 209 231 258 254 251 248 247 251 248 241 231 221 225 211 216 225 216 214 225 219 228 236 243 231 192 192 197 203 210 208 213 214 222 229 220 216 207 210 212 197 203 211 218 225 215 205 201 193 185 177 173 171 168 166 165 163 160 157 153 150 145 142 136
139 151 137 142 145 171 190 179 191 201 206 212 214 210 205 194 234 212 239 246 251 266 277 267 263 274 275 258 242 248 265 250 249 232 224 225 223 221 219 218 220 226 229 234 231 226 231 196 194 207 207 207 207 209 214 218 227 224 216 213 221 204 203 211 215 214 218 213 206 200 194 175 178 178 175 173 171 169 169 164 161 157 153 150 146
127 113 133 151 153 145 147 170 192 189 203 214 207 159 36 203 211 215 218 217 226 241 231 211 243 261 270 284 281 278 263 271 247 236 233 230 229 228 234 221 220 217 226 231 234 239 231 234 230 216 225 191 202 205 210 212 216 227 232 229 221 220 201 208 215 212 214 218 205 209 190 181 183 185 182 181 176 175 173 172 168 163 162 158 156
103 154 145 135 166 163 162 178 174 198 185 243 191 145 188 213 217 219 223 218 219 224 226 237 233 272 257 263 272 281 293 293 286 253 238 234 229 230 232 230 232 232 239 240 238 235 235 232 226 241 233 224 190 202 208 210 210 213 222 229 233 231 210 206 213 219 213 214 203 206 193 186 186 187 188 187 183 181 177 178 175 170 169 168 164
75 89 180 167 171 169 171 189 192 153 118 114 145 161 163 185 197 198 208 213 217 201 206 196 203 240 252 240 246 261 271 289 282 283 253 226 219 228 229 233 230 225 229 232 239 244 244 238 236 236 237 236 211 195 207 210 213 213 213 220 225 230 233 214 210 221 218 209 208 201 190 186 188 188 190 194 190 189 183 183 180 177 175 174 173
88 77 88 111 123 156 153 153 144 135 133 135 136 154 176 186 197 202 180 204 206 167 195 225 213 223 212 230 245 323 194 249 268 279 293 290 288 236 224 236 234 236 233 236 240 238 240 238 236 231 237 241 251 229 210 205 214 197 209 214 221 224 226 233 222 220 217 203 208 202 191 186 189 190 191 196 197 194 189 188 185 183 180 180 180
92 113 91 79 104 102 91 90 97 99 115 116 114 111 143 172 201 194 183 179 189 187 224 223 254 216 232 265 95 177 273 214 235 250 275 272 292 295 268 247 239 224 219 237 233 242 237 240 239 237 239 245 244 238 243 234 185 187 196 208 215 218 223 224 232 237 222 200 202 205 192 190 198 196 194 196 198 203 202 196 191 189 186 184 184
90 74 93 101 90 95 90 90 80 80 94 93 86 97 125 135 144 170 195 214 168 157 157 158 152 23 194 113 163 207 233 91 323 288 267 77 270 280 279 286 272 264 247 234 250 238 237 236 238 243 245 241 239 240 243 244 207 198 194 202 209 214 217 221 224 228 236 229 199 209 192 194 199 200 201 204 205 205 205 202 200 194 192 189 188
93 86 78 95 110 113 116 111 102 97 82 76 88 92 106 107 80 71 73 99 212 186 156 156 138 142 174 320 358 320 1 73 298 233 177 209 224 217 196 195 268 268 267 274 251 250 226 228 222 231 237 239 244 244 239 243 249 238 224 191 201 209 216 219 222 226 230 229 232 215 206 198 197 200 203 203 206 202 201 203 202 201 195 194 193
91 91 95 94 97 106 111 104 112 112 94 87 79 59 60 57 52 60 110 96 14 16 135 147 123 81 41 31 237 241 290 295 278 307 267 151 292 239 268 321 208 297 274 257 237 232 242 261 238 236 223 229 239 244 241 236 233 241 258 183 188 202 210 214 220 227 229 230 229 232 219 213 202 200 203 204 204 200 198 199 200 203 200 196 195
109 104 108 104 107 110 108 105 106 107 111 101 97 84 86 82 69 68 46 46 120 100 41 24 27 65 54 354 3 327 287 284 268 267 278 282 299 282 236 176 327 294 301 281 285 294 263 261 256 232 226 228 222 230 239 242 235 224 220 201 184 199 205 212 216 224 233 236 234 229 230 209 214 204 203 202 200 201 199 199 200 202 204 200 198
103 107 102 105 105 96 96 94 86 92 101 98 90 85 76 71 75 69 65 69 54 56 145 73 49 21 328 183 274 266 264 223 291 299 298 288 262 254 275 220 269 244 246 284 287 286 280 272 274 287 277 240 235 234 235 238 238 233 234 184 187 188 201 210 215 220 227 237 243 240 235 224 220 214 209 203 198 199 199 201 203 205 204 203 202
121 109 114 111 107 109 105 99 93 77 73 85 94 94 90 88 79 79 83 88 78 63 52 81 120 120 270 312 281 283 282 273 239 289 285 276 283 286 286 281 278 258 237 254 254 260 268 264 260 257 260 256 241 236 235 233 230 234 224 157 181 193 200 204 209 213 216 224 231 237 241 238 231 222 213 212 207 200 199 202 207 211 209 207 205
130 124 120 121 119 112 110 109 105 104 103 107 101 102 102 100 94 91 85 87 91 94 88 77 81 82 23 22 29 11 343 328 331 316 302 281 271 264 271 278 281 285 271 252 256 258 252 246 254 253 258 259 258 256 241 235 236 237 78 128 159 190 200 208 212 211 214 214 223 235 237 239 239 234 222 217 212 211 208 204 209 210 212 211 209
146 136 137 133 130 123 121 119 116 117 113 108 114 110 111 110 109 106 102 98 101 98 96 99 99 97 81 57 49 10 30 318 3 307 296 305 307 290 279 282 283 272 294 301 273 270 265 258 250 248 236 247 255 254 258 257 236 104 226 149 178 185 202 213 214 218 214 212 214 227 237 240 239 239 233 224 215 212 212 210 212 212 211 212 211
161 154 148 152 142 141 140 129 124 122 116 114 108 112 112 111 109 113 111 109 103 106 104 96 87 76 99 101 64 117 54 26 312 296 291 295 285 286 288 303 296 294 278 269 263 255 259 251 240 229 236 231 236 243 251 239 273 107 233 177 177 189 209 217 221 220 217 219 222 225 231 236 239 239 239 234 217 213 212 210 209 210 208 209 211
166 165 158 164 159 147 139 130 125 126 126 120 118 121 122 120 121 114 113 108 110 113 112 113 108 109 119 116 103 116 113 232 306 291 298 293 294 308 310 302 302 294 295 284 274 271 243 242 237 258 267 265 284 308 273 282 269 125 182 301 168 186 208 231 231 227 223 222 225 230 234 236 235 238 242 242 232 205 211 209 206 204 200 206 206
172 165 163 170 157 150 142 139 138 133 132 130 126 123 122 115 112 112 106 107 111 105 102 104 108 108 104 122 148 151 201 153 232 265 283 287 289 299 307 308 301 292 294 294 300 288 291 286 293 273 265 287 276 280 319 309 43 115 201 249 264 177 208 224 246 246 245 237 229 229 229 234 239 241 241 241 248 217 204 206 204 203 198 201 203
171 163 170 171 164 156 155 150 147 145 141 141 143 132 129 125 117 117 110 112 115 115 108 102 86 81 76 91 216 87 307 300 261 222 278 294 287 274 268 273 291 297 299 297 296 295 313 304 304 290 290 293 319 301 275 258 23 75 221 269 278 237 192 215 232 247 254 253 245 240 233 227 230 236 239 242 239 242 220 205 202 201 199 200 201
170 167 172 173 172 168 163 157 157 154 151 148 144 138 143 135 125 129 128 127 124 109 98 101 107 98 69 12 352 85 63 313 297 297 278 270 275 288 280 278 283 280 287 290 285 291 293 335 316 336 334 310 315 331 320 310 49 16 317 295 291 294 195 201 213 236 246 254 253 245 244 243 236 233 234 237 237 235 230 217 203 200 200 200 200
172 170 174 174 175 175 170 167 164 161 158 153 149 146 148 132 132 134 122 126 129 123 115 106 98 87 83 31 352 46 32 311 359 310 289 289 279 270 274 274 268 269 277 283 284 283 281 280 264 277 301 331 337 303 298 292 327 324 296 294 297 288 53 195 207 219 235 246 253 255 251 250 246 239 234 232 233 231 229 224 217 204 201 199 199
175 173 178 177 179 179 178 174 169 167 165 160 157 158 156 140 146 138 145 152 129 120 106 98 94 96 86 89 351 80 348 263 267 238 267 260 264 262 258 259 267 270 279 277 280 261 275 288 294 296 304 305 302 300 293 292 297 301 288 281 276 286 256 252 221 223 227 233 239 241 245 245 245 243 236 233 231 229 227 226 221 213 204 200 198
183 178 183 183 182 182 182 179 176 174 171 167 173 160 165 155 158 147 140 149 142 140 136 133 125 122 138 146 22 347 350 295 243 276 273 256 275 284 274 267 264 263 270 273 271 278 289 291 295 291 283 282 290 288 284 284 277 265 278 275 277 286 273 267 233 220 222 227 233 242 246 248 246 243 239 234 231 229 226 225 224 215 206 202 200
186 185 188 188 187 186 184 183 182 179 175 174 174 172 170 162 154 143 151 153 152 140 140 146 145 141 106 160 185 214 275 295 306 285 266 287 273 260 267 267 265 259 260 268 274 280 281 278 280 284 291 292 282 280 285 286 287 283 281 281 284 281 278 273 270 208 208 212 221 226 238 247 251 251 246 238 232 228 225 226 226 217 208 206 203
190 191 193 190 191 189 189 188 186 184 182 179 178 181 175 164 156 155 159 159 152 139 149 145 140 158 176 245 305 147 268 291 283 288 280 265 267 261 249 256 271 274 263 276 279 284 288 289 283 286 289 286 282 277 283 290 287 284 280 279 276 273 271 278 271 256 189 206 208 216 227 240 248 254 254 245 236 227 223 226 226 221 214 210 207
195 195 196 192 192 192 191 191 189 188 187 181 181 183 176 175 169 166 166 162 160 160 166 159 175 123 202 238 259 233 228 262 271 270 278 269 277 285 280 277 276 274 276 272 281 282 285 287 290 286 281 281 280 289 286 281 282 288 287 282 278 272 273 267 269 273 176 192 194 203 218 224 237 242 244 244 239 227 223 224 224 222 219 214 211
199 199 198 195 192 194 194 193 191 188 187 182 182 185 182 181 174 169 168 166 169 172 171 178 169 207 228 260 256 273 282 282 284 294 279 278 273 281 283 269 259 260 262 265 262 273 281 284 285 284 287 290 283 277 275 272 274 272 276 284 283 280 276 269 261 264 167 172 179 203 210 227 237 239 235 236 234 227 221 220 220 221 221 217 214
210 200 200 198 195 194 194 195 192 189 189 185 185 183 179 179 177 169 173 169 173 175 175 180 189 225 232 251 283 301 285 291 284 278 296 296 292 288 287 286 281 279 273 265 269 269 274 277 281 280 279 277 279 281 279 281 279 276 276 272 277 285 285 285 287 277 265 193 194 203 206 218 235 243 243 237 232 228 222 219 217 219 221 218 215
215 208 202 198 199 197 194 194 192 190 189 187 187 183 177 176 173 174 173 173 174 178 173 199 190 186 223 245 268 280 294 285 289 292 292 290 289 283 282 287 292 295 289 284 279 276 276 276 277 281 273 274 277 272 276 275 279 284 283 282 280 274 270 269 267 267 267 275 255 207 204 219 222 232 239 237 232 227 225 221 217 216 218 218 216
217 211 206 204 197 201 197 196 194 190 187 185 184 181 175 174 175 174 176 175 177 169 182 181 178 185 214 214 242 251 268 284 286 287 288 287 279 278 275 275 277 277 278 277 276 277 278 280 280 277 280 273 268 277 271 270 273 274 279 282 278 272 270 275 276 270 261 254 243 239 251 269 295 212 208 228 233 229 225 221 220 218 217 216 215
220 216 211 204 188 190 197 197 195 190 187 184 183 174 176 173 174 177 175 179 175 167 169 177 164 192 191 210 220 241 258 293 308 302 297 284 288 283 279 277 275 274 274 274 273 272 272 272 273 278 277 283 280 273 276 268 267 266 263 276 286 293 291 292 287 288 286 281 282 264 211 220 230 228 216 211 218 226 224 223 221 222 220 218 215
228 222 217 198 183 192 193 194 188 184 190 185 176 168 169 177 174 172 174 172 170 172 178 172 190 207 233 219 236 221 32 329 309 284 280 289 284 277 275 277 273 271 269 268 271 271 271 270 273 272 271 272 275 278 276 273 271 284 302 296 285 285 286 280 273 269 273 274 272 266 266 229 236 238 224 232 218 207 213 210 218 214 221 220 219
237 223 214 201 192 186 189 191 186 184 181 180 151 159 167 173 171 160 161 169 178 176 192 207 217 237 259 272 252 178 216 227 232 229 231 238 241 254 274 280 278 274 271 271 270 269 271 273 272 275 274 272 273 275 277 278 284 288 284 278 275 280 281 279 275 265 256 260 263 264 260 255 255 251 244 242 255 197 240 189 218 218 204 215 218
237 235 221 209 202 197 193 185 183 176 167 145 131 126 123 142 159 158 164 164 170 192 204 220 265 266 270 280 296 218 209 220 222 218 230 235 230 235 241 248 261 271 276 274 270 270 273 274 275 272 270 270 268 270 273 279 278 278 280 283 282 282 278 283 284 283 276 272 272 276 273 270 266 261 246 240 238 243 236 244 197 206 193 198 211
233 234 225 217 203 199 193 193 181 168 168 128 130 124 125 129 148 157 162 167 179 204 207 235 255 273 284 287 284 290 281 291 304 287 243 218 221 227 228 234 237 242 249 258 266 268 268 270 269 266 269 268 271 268 270 271 274 275 273 277 280 281 278 273 272 275 284 312 296 284 275 275 274 267 261 248 241 233 223 211 102 175 186 193 204
225 226 223 216 212 202 194 191 178 171 144 137 133 135 133 135 141 190 171 164 202 197 220 240 262 279 284 287 287 286 295 236 253 275 291 289 227 209 222 228 231 233 236 234 241 254 269 268 269 270 267 275 274 270 271 277 283 281 281 273 271 274 276 273 272 278 280 286 283 275 271 265 261 260 259 253 248 255 209 176 196 180 189 198 205
235 235 226 221 219 214 200 187 175 158 140 142 139 140 141 146 159 218 160 159 215 229 232 246 249 266 274 282 291 293 295 297 294 287 296 296 300 290 262 252 261 231 218 225 229 231 234 247 258 263 265 266 270 275 279 279 274 270 274 274 274 274 273 274 281 277 275 278 274 285 279 271 270 269 262 257 248 241 251 195 184 185 182 199 212
236 230 225 222 213 206 192 172 162 144 136 143 141 144 145 151 159 218 166 171 219 225 231 247 253 261 271 270 276 283 289 292 293 302 296 296 296 290 280 276 269 271 271 254 234 227 224 228 242 256 265 267 269 270 270 270 271 274 271 273 275 275 274 277 276 271 271 267 268 264 264 267 257 259 259 261 258 244 243 112 142 148 171 195 223
239 230 226 217 202 187 172 160 144 133 139 148 144 146 146 150 167 202 184 197 230 238 251 260 260 264 266 270 275 280 287 290 298 299 262 293 293 288 283 278 275 273 268 259 259 279 292 287 274 270 270 286 308 306 306 305 305 302 305 293 275 265 268 267 265 267 263 255 246 249 256 260 254 256 263 259 258 254 238 162 116 118 104 32 265
234 225 221 207 188 172 160 145 128 129 141 150 144 147 152 158 181 206 185 232 246 245 259 269 269 269 267 268 274 287 288 287 308 46 49 308 290 287 286 284 282 278 273 272 260 235 228 240 253 267 275 279 281 285 286 284 283 290 287 274 262 266 263 262 262 260 258 254 243 244 256 259 252 253 255 251 251 255 249 221 125 87 73 37 296
230 223 212 192 166 153 142 135 138 140 145 153 154 155 155 169 208 232 232 254 265 272 270 269 271 275 275 250 251 272 276 280 345 74 9 303 289 289 289 288 285 281 277 278 277 261 219 215 230 240 247 254 258 261 268 272 273 268 262 256 256 259 260 258 264 265 266 254 244 242 253 255 255 248 253 253 252 240 240 243 222 121 120 178 201
229 213 192 169 139 119 112 116 119 125 139 149 154 149 159 174 216 229 261 274 282 282 292 289 286 287 286 275 230 232 262 277 296 295 292 267 278 293 293 289 285 279 279 281 278 278 277 272 256 239 235 233 237 244 247 243 246 252 254 255 254 251 254 257 258 265 264 255 249 237 247 252 252 249 248 250 246 239 226 191 128 222 242 249 200